Weather History for CWVU - January, 2013

Change the Weather History Date:

Monday, January 21, 2013

  Actual Average Record
Temperature  
Mean Temperature 24 °F -  
Max Temperature 29 °F - - ()
Min Temperature 20 °F - - ()
Degree Days  
Heating Degree Days 40    
Moisture  
Dew Point 12 °F    
Average Humidity 58    
Maximum Humidity 74    
Minimum Humidity 36    
Precipitation  
Precipitation 0.01 in - - ()
Sea Level Pressure  
Sea Level Pressure 29.93 in    
Wind  
Wind Speed 27 mph ()    
Max Wind Speed 43 mph    
Max Gust Speed 54 mph    
T = Trace of Precipitation, MM = Missing Value Source: Averaged Metar Reports

Daily Weather History Graph

Daily Weather History Graph

Search for Another Location

Airport or City:

Trip Planner

Search our weather history database for the weather conditions in past years. The results will help you decide how hot, cold, wet, or windy it might be!

Date:

Astronomy

Jan. 21, 2013 Rise Set
Actual Time 7:53 AM AST 5:20 PM AST
Civil Twilight 7:21 AM AST 5:52 PM AST
Nautical Twilight 6:46 AM AST 6:27 PM AST
Astronomical Twilight 6:12 AM AST 7:02 PM AST
Moon 12:56 PM AST (1/21) 3:18 AM AST (1/21)
Length of Visible Light 10h 30m
Length of Day
9h 26m
Waxing Gibbous, 74% of the Moon is Illuminated
Jan 21
Waxing Gibbous
Jan 27
Full
Feb 3
Last Quarter
Feb 10
New
Feb 17
First Quarter

Hourly Weather History & Observations

Time (AST) Temp. Windchill Dew Point Humidity Pressure Visibility Wind Dir Wind Speed Gust Speed Precip Events Conditions
12:00 AM 36.5 °F 22.0 °F 17.4 °F 46% 29.67 in - West 40.3 mph 48.3 mph N/A   Unknown
1:00 AM 33.6 °F 18.4 °F 23.4 °F 66% 29.70 in - West 38.0 mph 44.9 mph N/A   Unknown
2:00 AM 30 °F - 16 °F 43% 29.75 in - West 40.3 mph - -  
2:00 AM 29.8 °F 12.8 °F 16.2 °F 57% 29.75 in - West 40.3 mph 48.3 mph N/A   Unknown
3:00 AM 28.6 °F 10.6 °F 17.1 °F 62% 29.79 in - West 42.6 mph 54.1 mph N/A   Unknown
4:00 AM 27.1 °F 8.6 °F 14.9 °F 60% 29.81 in - West 42.6 mph 50.6 mph N/A   Unknown
5:00 AM 25.5 °F 6.7 °F 12.9 °F 59% 29.83 in - West 40.3 mph 50.6 mph N/A   Unknown
6:00 AM 23.9 °F 4.5 °F 12.9 °F 63% 29.87 in - West 40.3 mph 48.3 mph N/A   Unknown
7:00 AM 22.5 °F 4.1 °F 13.6 °F 69% 29.91 in - West 32.2 mph - N/A   Unknown
8:00 AM 21 °F - 12 °F 56% 29.94 in - West 29.9 mph - -  
8:00 AM 21.4 °F 3.2 °F 12.0 °F 67% 29.94 in - West 29.9 mph 38.0 mph N/A   Unknown
9:00 AM 20.1 °F 1.2 °F 10.4 °F 66% 29.98 in - West 31.1 mph 39.1 mph N/A   Unknown
10:00 AM 20.3 °F 1.7 °F 13.1 °F 74% 30.01 in - WNW 29.9 mph 35.7 mph N/A   Unknown
11:00 AM 20.3 °F 3.0 °F 10.6 °F 66% 30.03 in - West 25.3 mph 33.4 mph N/A   Unknown
12:00 PM 20.8 °F 4.0 °F 9.5 °F 62% 30.03 in - West 24.2 mph 32.2 mph 0.01 in   Unknown
1:00 PM 20.7 °F 3.8 °F 7.0 °F 56% 30.01 in - West 24.2 mph 31.1 mph N/A   Unknown
2:00 PM 20 °F - 8 °F 47% 30.00 in - West 17.3 mph - -  
2:00 PM 20.3 °F 5.7 °F 8.2 °F 60% 30.00 in - West 17.3 mph 24.2 mph N/A   Unknown
3:00 PM 22.6 °F 9.6 °F 10.9 °F 61% 30.02 in - West 15.0 mph 23.0 mph N/A   Unknown
4:00 PM 21.0 °F 7.1 °F 7.5 °F 56% 30.01 in - West 16.1 mph - N/A   Unknown
5:00 PM 21.4 °F 9.1 °F 8.4 °F 57% 30.02 in - West 12.7 mph - N/A   Unknown
6:00 PM 21.7 °F 10.2 °F 9.9 °F 60% 30.01 in - West 11.5 mph - N/A   Unknown
7:00 PM 22.3 °F 10.2 °F 8.2 °F 55% 30.00 in - West 12.7 mph - N/A   Unknown
8:00 PM 23 °F - 7 °F 36% 30.00 in - West 13.8 mph - -  
8:00 PM 23.2 °F 10.8 °F 7.2 °F 50% 30.00 in - West 13.8 mph - N/A   Unknown
9:00 PM 23.9 °F 13.5 °F 9.0 °F 53% 30.01 in - West 10.4 mph - N/A   Unknown
10:00 PM 24.1 °F 13.1 °F 7.3 °F 49% 30.02 in - WNW 11.5 mph 18.4 mph N/A   Unknown
11:00 PM 24.3 °F 12.7 °F 11.7 °F 59% 30.00 in - NW 12.7 mph - N/A   Unknown